Tracking 35334 objects as of 12-Sep-2026
HD Live streaming from Space Station
objects crossing your sky now

GHGSAT-C7

Track GHGSAT-C7 now!
10-day predictions
GHGSAT-C7 is classified as:


NORAD ID: 56209
Int'l Code: 2023-054AH
Launch date: April 15, 2023
Source: Canada (CA)
Launch site: AIR FORCE WESTERN TEST RANGE (AFWTR)

Uplink (MHz):
Downlink (MHz): 400.360
Beacon (MHz):
Mode: 9k6 GMSK
Call sign:
Status: Unknown

Your satellite tracking list
Your tracking list is empty




NASA's NSSDC Master Catalog

Two Line Element Set (TLE):
1 56209U 23054AH  26255.18117620  .00009237  00000-0  15757-3 0  9991
2 56209  97.2918 164.7127 0008968  85.5444 274.6833 15.51523930191872
Source of the keplerian elements: AFSPC